This is the latest recevied weather packets stored in our database for station/object DO6MJ-1. If no packets are shown the sender has not sent any weather packets the latest 10 day(s).
| Time | Temp. | Humidity | Pressure | Rain* | Wind** | Luminosity | Snow |
|---|---|---|---|---|---|---|---|
| 1777830151 | 23.33° C | 38% | 1002.1 hPa | 0 mm | - | - | - |
| 1777828951 | 23.33° C | 37% | 1002 hPa | 0 mm | - | - | - |
| 1777827750 | 23.89° C | 37% | 1002 hPa | 0 mm | - | - | - |
| 1777826550 | 25° C | 36% | 1002.1 hPa | 0 mm | - | - | - |
| 1777825350 | 26.11° C | 34% | 1002 hPa | 0 mm | - | - | - |
| 1777824150 | 26.67° C | 34% | 1001.8 hPa | 0 mm | - | - | - |
| 1777822949 | 27.22° C | 32% | 1001.8 hPa | 0 mm | - | - | - |
| 1777821749 | 27.78° C | 31% | 1001.9 hPa | 0 mm | - | - | - |
| 1777820549 | 27.78° C | 31% | 1001.9 hPa | 0 mm | - | - | - |
| 1777819348 | 28.33° C | 30% | 1002 hPa | 0 mm | - | - | - |
| 1777818148 | 28.89° C | 29% | 1002 hPa | 0 mm | - | - | - |
| 1777816948 | 28.89° C | 30% | 1002.2 hPa | 0 mm | - | - | - |
| 1777815747 | 28.89° C | 30% | 1002.3 hPa | 0 mm | - | - | - |
| 1777814548 | 29.44° C | 29% | 1002.5 hPa | 0 mm | - | - | - |
| 1777813347 | 28.89° C | 29% | 1002.6 hPa | 0 mm | - | - | - |
| 1777812147 | 28.33° C | 29% | 1002.9 hPa | 0 mm | - | - | - |
| 1777810946 | 28.33° C | 29% | 1003.1 hPa | 0 mm | - | - | - |
| 1777809746 | 28.33° C | 31% | 1003.4 hPa | 0 mm | - | - | - |
| 1777808546 | 27.78° C | 37% | 1003.6 hPa | 0 mm | - | - | - |
| 1777807345 | 26.67° C | 40% | 1003.8 hPa | 0 mm | - | - | - |
| 1777806145 | 26.67° C | 41% | 1003.9 hPa | 0 mm | - | - | - |
| 1777804945 | 26.67° C | 40% | 1004.2 hPa | 0 mm | - | - | - |
| 1777803745 | 26.67° C | 40% | 1004.2 hPa | 0 mm | - | - | - |
| 1777802544 | 26.67° C | 42% | 1004.4 hPa | 0 mm | - | - | - |
| 1777801344 | 25.56° C | 43% | 1004.4 hPa | 0 mm | - | - | - |
* Rain latest hour (hover to see other rain measurements)
** Current wind speed in m/s (hover to see current wind gust speed)